| time (UTC) | temp C | wind direction | speed KPH | gust KPH | rain 1hr cm | rain 24hr cm | rain mn cm | humidity % | barometer mb |
| 20260506164520 | 10 | 9 | 11.3 | 17.7 | 0.00 | 0.00 | 0.00 | 89 | 948.0 |
| 20260506163038 | 10 | 26 | 11.3 | 22.5 | 0.00 | 0.00 | 0.00 | 88 | 947.9 |
| 20260506161520 | 11 | 41 | 9.7 | 16.1 | 0.00 | 0.00 | 0.00 | 87 | 947.8 |
| 20260506160022 | 11 | 316 | 9.7 | 17.7 | 0.00 | 0.00 | 0.00 | 86 | 947.9 |
| 20260506154518 | 11 | 22 | 9.7 | 16.1 | 0.00 | 0.00 | 0.00 | 88 | 948.0 |
| 20260506153017 | 10 | 18 | 14.5 | 20.9 | 0.00 | 0.00 | 0.00 | 89 | 947.9 |
| 20260506151517 | 10 | 56 | 12.9 | 19.3 | 0.00 | 0.00 | 0.00 | 90 | 948.1 |
| 20260506150016 | 10 | 37 | 6.4 | 17.7 | 0.00 | 0.00 | 0.00 | 91 | 948.1 |
| 20260506144515 | 10 | 333 | 6.4 | 14.5 | 0.00 | 0.00 | 0.00 | 91 | 948.3 |
| 20260506143016 | 10 | 55 | 6.4 | 17.7 | 0.00 | 0.00 | 0.00 | 91 | 948.4 |
| 20260506141515 | 10 | 16 | 14.5 | 22.5 | 0.00 | 0.00 | 0.00 | 91 | 948.5 |
| 20260506140014 | 10 | 340 | 12.9 | 27.4 | 0.00 | 0.00 | 0.00 | 88 | 948.5 |
| 20260506134513 | 11 | 347 | 11.3 | 20.9 | 0.00 | 0.00 | 0.00 | 82 | 948.4 |
| 20260506133012 | 12 | 63 | 4.8 | 9.7 | 0.00 | 0.00 | 0.00 | 79 | 948.3 |
| 20260506131514 | 12 | 290 | 3.2 | 11.3 | 0.00 | 0.00 | 0.00 | 81 | 948.2 |
| 20260506130010 | 11 | 25 | 1.6 | 8.0 | 0.00 | 0.00 | 0.00 | 88 | 948.3 |
| 20260506124509 | 10 | 13 | 3.2 | 9.7 | 0.00 | 0.00 | 0.00 | 88 | 948.4 |
| 20260506123010 | 10 | 11 | 4.8 | 14.5 | 0.00 | 0.00 | 0.00 | 87 | 948.4 |
| 20260506121508 | 11 | 9 | 6.4 | 16.1 | 0.00 | 0.00 | 0.00 | 84 | 948.3 |
| 20260506120007 | 11 | 360 | 4.8 | 16.1 | 0.00 | 0.00 | 0.00 | 81 | 948.2 |
| 20260506114509 | 11 | 338 | 6.4 | 14.5 | 0.00 | 0.00 | 0.00 | 80 | 948.1 |
| 20260506113007 | 12 | 292 | 8.0 | 14.5 | 0.00 | 0.00 | 0.00 | 80 | 948.1 |
| 20260506111507 | 12 | 346 | 8.0 | 11.3 | 0.00 | 0.00 | 0.00 | 80 | 948.3 |
| 20260506110003 | 11 | 333 | 6.4 | 14.5 | 0.00 | 0.00 | 0.00 | 83 | 948.3 |
| 20260506104603 | 11 | 13 | 6.4 | 12.9 | 0.00 | 0.00 | 0.00 | 83 | 948.3 |
| 20260506103059 | 11 | 351 | 4.8 | 12.9 | 0.00 | 0.00 | 0.00 | 82 | 948.3 |
| 20260506101605 | 11 | 46 | 3.2 | 8.0 | 0.00 | 0.00 | 0.00 | 81 | 948.3 |
| 20260506100057 | 11 | 312 | 1.6 | 8.0 | 0.00 | 0.00 | 0.00 | 79 | 948.3 |
| 20260506094621 | 11 | 298 | 3.2 | 9.7 | 0.00 | 0.00 | 0.00 | 83 | 948.2 |
| 20260506093054 | 10 | 17 | 1.6 | 4.8 | 0.00 | 0.00 | 0.00 | 85 | 948.3 |
| 20260506091550 | 10 | 132 | 4.8 | 8.0 | 0.00 | 0.00 | 0.00 | 86 | 948.1 |
| 20260506090049 | 10 | 111 | 1.6 | 8.0 | 0.00 | 0.00 | 0.00 | 86 | 948.2 |
| 20260506084548 | 10 | 104 | 3.2 | 11.3 | 0.00 | 0.00 | 0.00 | 89 | 948.1 |
| 20260506083042 | 9 | 102 | 4.8 | 11.3 | 0.00 | 0.00 | 0.00 | 93 | 948.1 |
| 20260506081539 | 8 | 115 | 3.2 | 6.4 | 0.00 | 0.00 | 0.00 | 94 | 948.2 |
| 20260506073041 | 7 | 138 | 8.0 | 12.9 | 0.00 | 0.00 | 0.00 | 94 | 948.0 |
| 20260506071534 | 7 | 188 | 4.8 | 11.3 | 0.00 | 0.00 | 0.00 | 96 | 947.8 |
| 20260506061532 | 6 | 172 | 3.2 | 6.4 | 0.00 | 0.00 | 0.00 | 97 | 947.7 |
| 20260506044520 | 6 | 105 | 1.6 | 3.2 | 0.00 | 0.00 | 0.00 | 96 | 947.4 |
| 20260506043015 | 6 | 208 | 3.2 | 8.0 | 0.00 | 0.00 | 0.00 | 97 | 947.4 |
| 20260506041518 | 6 | 195 | 0.0 | 6.4 | 0.00 | 0.00 | 0.00 | 97 | 947.2 |
| 20260506040037 | 6 | 128 | 0.0 | 4.8 | 0.00 | 0.00 | 0.00 | 97 | 947.2 |
| 20260506034513 | 6 | 121 | 1.6 | 8.0 | 0.00 | 0.00 | 0.00 | 96 | 947.2 |
| 20260506033013 | 6 | 115 | 3.2 | 6.4 | 0.00 | 0.00 | 0.00 | 96 | 947.1 |
| 20260506031526 | 7 | 154 | 1.6 | 6.4 | 0.00 | 0.00 | 0.00 | 96 | 947.3 |
| 20260506030012 | 7 | 121 | 1.6 | 4.8 | 0.00 | 0.00 | 0.00 | 96 | 947.2 |
| 20260506024518 | 7 | 252 | 0.0 | 3.2 | 0.00 | 0.00 | 0.00 | 96 | 947.3 |
| 20260506023011 | 7 | 178 | 0.0 | 3.2 | 0.00 | 0.00 | 0.00 | 96 | 947.3 |
| 20260506021510 | 7 | 171 | 1.6 | 6.4 | 0.00 | 0.00 | 0.00 | 96 | 947.3 |
| 20260506020006 | 7 | 132 | 3.2 | 4.8 | 0.00 | 0.00 | 0.00 | 96 | 947.3 |
| 20260506014510 | 7 | 143 | 0.0 | 3.2 | 0.00 | 0.00 | 0.00 | 96 | 947.4 |
| 20260506013005 | 7 | 137 | 1.6 | 4.8 | 0.00 | 0.00 | 0.00 | 96 | 947.5 |
| 20260506011503 | 7 | 162 | 4.8 | 6.4 | 0.00 | 0.00 | 0.00 | 97 | 947.6 |
| 20260506010003 | 7 | 186 | 1.6 | 6.4 | 0.00 | 0.00 | 0.00 | 97 | 947.7 |
| 20260506004601 | 7 | 138 | 1.6 | 4.8 | 0.00 | 0.00 | 0.00 | 97 | 948.0 |
| 20260506003100 | 6 | 126 | 1.6 | 4.8 | 0.00 | 0.00 | 0.00 | 97 | 948.1 |
| 20260506001558 | 7 | 133 | 3.2 | 4.8 | 0.00 | 0.00 | 0.00 | 97 | 948.2 |
| 20260506000100 | 6 | 187 | 1.6 | 6.4 | 0.00 | 0.00 | 0.00 | 97 | 948.2 |
| 20260505234601 | 6 | 154 | 3.2 | 4.8 | 0.00 | 0.00 | 0.00 | 97 | 948.1 |
| 20260505233108 | 6 | 159 | 1.6 | 6.4 | 0.00 | 0.00 | 0.00 | 97 | 948.2 |
| 20260505231555 | 6 | 96 | 1.6 | 3.2 | 0.00 | 0.00 | 0.00 | 97 | 948.2 |
| 20260505230050 | 6 | 86 | 1.6 | 4.8 | 0.00 | 0.00 | 0.00 | 96 | 948.2 |
| 20260505224549 | 6 | 45 | 1.6 | 3.2 | 0.00 | 0.00 | 0.00 | 96 | 948.3 |
| 20260505223052 | 6 | 109 | 3.2 | 4.8 | 0.00 | 0.00 | 0.00 | 96 | 948.3 |
| 20260505221549 | 6 | 103 | 1.6 | 4.8 | 0.00 | 0.00 | 0.00 | 95 | 948.3 |
| 20260505220043 | 6 | 113 | 0.0 | 3.2 | 0.00 | 0.00 | 0.00 | 95 | 948.4 |
| 20260505214548 | 7 | 105 | 3.2 | 4.8 | 0.00 | 0.00 | 0.00 | 95 | 948.2 |
| 20260505213035 | 7 | 94 | 0.0 | 4.8 | 0.00 | 0.00 | 0.00 | 94 | 948.4 |
| 20260505211530 | 7 | 313 | 3.2 | 8.0 | 0.00 | 0.00 | 0.00 | 95 | 948.5 |
| 20260505210028 | 7 | 355 | 4.8 | 8.0 | 0.00 | 0.00 | 0.00 | 95 | 948.5 |
| 20260505204526 | 7 | 35 | 6.4 | 8.0 | 0.00 | 0.00 | 0.00 | 95 | 948.4 |
| 20260505203017 | 7 | 39 | 4.8 | 8.0 | 0.00 | 0.00 | 0.00 | 95 | 948.4 |
| 20260505201512 | 7 | 40 | 6.4 | 9.7 | 0.00 | 0.00 | 0.00 | 94 | 948.2 |
| 20260505200013 | 7 | 15 | 4.8 | 11.3 | 0.00 | 0.00 | 0.00 | 94 | 948.1 |
| 20260505194505 | 7 | 5 | 3.2 | 11.3 | 0.00 | 0.00 | 0.00 | 94 | 947.9 |
| 20260505193059 | 8 | 360 | 4.8 | 8.0 | 0.00 | 0.00 | 0.00 | 93 | 947.9 |
| 20260505191555 | 8 | 36 | 3.2 | 8.0 | 0.00 | 0.00 | 0.00 | 92 | 947.7 |
| 20260505190050 | 8 | 324 | 8.0 | 17.7 | 0.00 | 0.00 | 0.00 | 92 | 947.5 |
| 20260505184546 | 8 | 329 | 11.3 | 17.7 | 0.00 | 0.00 | 0.00 | 94 | 947.5 |
| 20260505183042 | 8 | 342 | 1.6 | 6.4 | 0.00 | 0.00 | 0.00 | 94 | 947.6 |
| 20260505181542 | 8 | 340 | 3.2 | 8.0 | 0.00 | 0.00 | 0.00 | 94 | 947.5 |
| 20260505180037 | 8 | 58 | 6.4 | 9.7 | 0.00 | 0.00 | 0.00 | 94 | 947.4 |
| 20260505174537 | 8 | 42 | 3.2 | 8.0 | 0.00 | 0.00 | 0.00 | 93 | 947.4 |
| 20260505173023 | 8 | 54 | 3.2 | 6.4 | 0.00 | 0.00 | 0.00 | 92 | 947.5 |
| 20260505171523 | 8 | 26 | 1.6 | 9.7 | 0.00 | 0.00 | 0.00 | 91 | 947.6 |
| 20260505170018 | 10 | 46 | 12.9 | 24.1 | 0.00 | 0.00 | 0.00 | 88 | 947.6 |